Regional Weather Roundup
Issued by NWS

Home | Current Version | Previous Version | Graphics & Text | Print | Product List | Glossary Off
Versions: 1 2 3 4 5 6 7 8 9 10 11 12 13 14 15 16 17 18 19 20 21 22 23 24 25 26 27 28 29 30 31 32 33 34 35 36 37 38 39 40 41 42 43 44 45 46 47 48 49 50

000
ASUS43 KMKX 141159
RWRWI

WISCONSIN REGIONAL WEATHER ROUNDUP
NATIONAL WEATHER SERVICE MILWAUKEE/SULLIVAN WI
600 AM CST THU DEC 14 2017

NOTE: "FAIR" INDICATES FEW OR NO CLOUDS BELOW 12,000 FEET WITH NO
SIGNIFICANT WEATHER AND/OR OBSTRUCTIONS TO VISIBILITY.

WIZ001-002-006>008-014>016-023>028-141300-
NORTHWEST WISCONSIN

CITY           SKY/WX    TMP DP  RH WIND       PRES   REMARKS
SUPERIOR ARPT  CLOUDY    11   9  92 SW5       29.99S WCI   3
6HR MIN TEMP:  -1; 6HR MAX TEMP:  11;

ASHLAND        CLOUDY    12   9  87 SW5       29.98S WCI   4
6HR MIN TEMP:   1; 6HR MAX TEMP:  12;

HAYWARD        CLOUDY    17  12  80 CALM      29.95S
6HR MIN TEMP:  17; 6HR MAX TEMP:  19;

SIREN          CLOUDY    17  14  89 W3        29.99S
CUMBERLAND     CLOUDY    14  12  92 CALM      29.96S
RICE LAKE      FLURRIES  14  13  93 CALM      29.98F
CHETEK           N/A     13  11  93 MISG      29.99R
LADYSMITH      CLOUDY    10   7  88 CALM      29.97S
6HR MIN TEMP:   2; 6HR MAX TEMP:  13;

EAU CLAIRE     NOT AVBL
MENOMONIE      FLURRIES  13  11  91 CALM      30.01S
6HR MIN TEMP:   7; 6HR MAX TEMP:  13;

NEW RICHMOND   LGT SNOW  17  14  89 CALM      29.98F
OSCEOLA        CLOUDY    19  19 100 CALM      30.03R
$$

WIZ003>005-009-010-017-018-141300-
NORTH CENTRAL WISCONSIN

CITY           SKY/WX    TMP DP  RH WIND       PRES   REMARKS
MANITOWISH WTR CLOUDY    11   9  92 CALM      29.90R
ARBOR VITAE    MOCLDY    12   9  87 CALM      29.90R
WOODRUFF       MOCLDY    12   9  87 CALM      29.90R
RHINELANDER    CLOUDY    11   8  88 W7        29.90S WCI   0
6HR MIN TEMP:   6; 6HR MAX TEMP:  15;

EAGLE RIVER    FLURRIES  11   7  83 CALM      29.88S
6HR MIN TEMP:  10; 6HR MAX TEMP:  14;

LAND O LAKES   FLURRIES  11   8  88 W3        29.90R
6HR MIN TEMP:  11; 6HR MAX TEMP:  14;

PHILLIPS       MOCLDY    -5  -8  88 CALM      29.92S
6HR MIN TEMP:  -5; 6HR MAX TEMP:  12;

TOMAHAWK       CLOUDY     6   3  88 W3        29.93R
MEDFORD        CLOUDY     4   1  86 CALM      29.93S
MERRILL        CLOUDY     7   4  89 CALM      29.95R
6HR MIN TEMP:   7; 6HR MAX TEMP:  13;

$$

WIZ029-030-035-036-043>047-141300-
CENTRAL WISCONSIN

CITY           SKY/WX    TMP DP  RH WIND       PRES   REMARKS
WAUSAU         CLOUDY     8   5  87 NW7       29.94R WCI  -3
6HR MIN TEMP:   4; 6HR MAX TEMP:  12;

MOSINEE        PTCLDY     7   5  92 NW3       29.96R
MARSHFIELD     CLOUDY     1  -2  87 NW8       29.95R WCI -13
6HR MIN TEMP:   1; 6HR MAX TEMP:  11;

STEVENS POINT  CLOUDY    -4  -7  88 CALM      29.97R
WAUPACA        PTCLDY     5   1  84 CALM      29.99R FOG
6HR MIN TEMP:   4; 6HR MAX TEMP:  12;

WAUTOMA        PTCLDY    -4  -9  79 CALM      30.00R
6HR MIN TEMP:  -4; 6HR MAX TEMP:   5;

WISC RAPIDS    CLOUDY     1  -2  87 CALM      30.00R
6HR MIN TEMP:  -1; 6HR MAX TEMP:  11;

CAMP DOUGLAS   CLOUDY     6   2  85 CALM      30.01R
6HR MIN TEMP:   2; 6HR MAX TEMP:  10;

$$

WIZ011>013-019>022-031-037>040-048>050-141300-
NORTHEAST WISCONSIN

CITY           SKY/WX    TMP DP  RH WIND       PRES   REMARKS
ANTIGO         CLOUDY     8   5  85 NW3       29.92S
SHAWANO        PTCLDY    10   6  86 W5        29.97R WCI   1
6HR MIN TEMP:   5; 6HR MAX TEMP:  13;

OCONTO         CLOUDY    -6 -10  83 CALM      29.97S
STURGEON BAY   CLOUDY    16   8  71 NW14      29.95R WCI   2
6HR MIN TEMP:  16; 6HR MAX TEMP:  19;

GREEN BAY      PTCLDY     3  -3  76 W5        29.98R WCI  -6
6HR MIN TEMP:  -1; 6HR MAX TEMP:   9;

MANITOWOC      PTCLDY     7   3  84 NW7       29.98R WCI  -5
6HR MIN TEMP:   7; 6HR MAX TEMP:  14;

APPLETON       PTCLDY     3   0  85 W9        29.95R WCI -11
CLINTONVILLE   NOT AVBL
OSHKOSH        CLOUDY     6   3  87 W3        29.98R
6HR MIN TEMP:   5; 6HR MAX TEMP:  13;

$$

WIZ032>034-041-042-053>061-141300-
SOUTHWEST WISCONSIN

CITY           SKY/WX    TMP DP  RH WIND       PRES   REMARKS
LA CROSSE      CLOUDY     8   4  83 SE3       30.06R
6HR MIN TEMP:   5; 6HR MAX TEMP:  16;

SPARTA         CLOUDY    -1  -4  88 CALM      30.03R
VIROQUA        CLOUDY    10  10  98 NW5       29.99R WCI   2
6HR MIN TEMP:   9; 6HR MAX TEMP:  16;

BOSCOBEL       CLOUDY     7   3  84 CALM      30.05R FOG
6HR MIN TEMP:   7; 6HR MAX TEMP:  20;

PRAIRIE DU CHI CLEAR     13   9  84 CALM      30.03S
PLATTEVILLE    CLOUDY    11  10  95 N3        30.01R
$$

WIZ056-057-062-063-064-067-068-141300-
SOUTH CENTRAL WISCONSIN

CITY           SKY/WX    TMP DP  RH WIND       PRES   REMARKS
REEDSBURG      CLOUDY    10   9  93 CALM      30.01R
6HR MIN TEMP:  10; 6HR MAX TEMP:  18;

BARABOO/DELLS  CLOUDY     9   6  89 CALM      29.99R
LONE ROCK      NOT AVBL
MINERAL POINT  CLEAR     14  12  92 CALM      29.99R
MADISON        CLOUDY     9   7  92 CALM      29.99R
6HR MIN TEMP:   8; 6HR MAX TEMP:  15;

MIDDLETON      CLOUDY    13  10  87 CALM      30.00R
WATERTOWN      PTCLDY     8   8 100 CALM      29.98R
MONROE         PTCLDY    16  10  79 W8        29.98R WCI   5
JANESVILLE     PTCLDY    12   9  85 SW3       30.00R
$$

WIZ051-052-058>065-066-070>072-141300-
SOUTHEAST WISCONSIN

CITY           SKY/WX    TMP DP  RH WIND       PRES   REMARKS
MILWAUKEE      PTCLDY    15   9  76 NW8       29.98R WCI   4
6HR MIN TEMP:  14; 6HR MAX TEMP:  20;

WAUKESHA       CLEAR      7   3  85 NW6       29.97S WCI  -3
MILWAUKEE/TIMM PTCLDY    10   5  79 NW5       29.99R WCI   2
RACINE         CLEAR     14   8  77 NW10      30.00R WCI   1
6HR MIN TEMP:  14; 6HR MAX TEMP:  22;

BURLINGTON     PTCLDY     9   8  93 NW6       29.97R WCI  -1
KENOSHA        PTCLDY    13   6  74 NW9       29.98R WCI   1
6HR MIN TEMP:  13; 6HR MAX TEMP:  22;

FOND DU LAC    CLOUDY     3  -1  83 CALM      29.98R
6HR MIN TEMP:   3; 6HR MAX TEMP:  13; 6HR PCP: TRACE;

SHEBOYGAN      PTCLDY     9   6  88 NW6       29.98R WCI  -1
6HR MIN TEMP:   6; 6HR MAX TEMP:  14;

WEST BEND      PTCLDY     9   9 100 W3        29.97R
JUNEAU         PTCLDY     6   4  90 CALM      29.98R
$$

LSZ147-162-141300-
LAKE SUPERIOR

STATION/POSITION TIME  TEMP    WIND        PRES    WAVE
                       AIR SEA DIR/SP/G            HT/PER
                 (UTC) (F)     (DEG/KT/KT) (MB)    (FT/S)
DEVILS ISLAND    1100   18     270/ 11/ 13 1015.8R
SAXON HARBOR     1130   14                 1014.6S
$$

LMZ867-665-643>646-141300-
LAKE MICHIGAN

STATION/POSITION TIME  TEMP    WIND        PRES    WAVE
                       AIR SEA DIR/SP/G            HT/PER
                 (UTC) (F)     (DEG/KT/KT) (MB)    (FT/S)
NORTHPORT PIER   1140   20     320/ 16/ 20 1013.9R
KEWAUNEE LAKESHO 1130    9     300/  4/  5 1013.9R
SHEBOYGAN LAKESH 1100   14     300/ 12/ 16 1015.7R
PORT WASHINGTON  1140   11     300/  7/ 11 1016.6R
MILWAUKEE LAKESH 1130   16     330/ 11/ 14   N/A
KENOSHA   LAKESH 1100   15     310/ 10/ 16 1014.2
$$

TC  - TEMPERATURE IN CELSIUS
VSB - VISIBILITY IN STATUTE MILES
WCI - WIND CHILL INDEX
HX  - HEAT INDEX





USA.gov is the U.S. government's official web portal to all federal, state and local government web resources and services.